UAE5AM NZAA-OMDB

Flight info

Callsign UAE5AM
Flight time N/A
Altitude 34000
Route MADEP N774 TESAT A576 PKS/N0490F360 J141 LEC T21 KADUN/N0483F380 T21 PD N509 MUTMI/N0466F400 N509 ELATI N640 KAT R461 MDI M300 EMURU P570 MIXAM/N0335F200 P574 DAPOK T508 SOLUD P574 IMPED
Aircraft A388/J-SADE2E3FGHIJ3J4J5M1RWXY/LB1D1

Departure

Time 2026-05-03 20:46
Airport Auckland International Airport (NZAA)

Arrival

Time N/A
Airport Dubai International Airport (OMDB)
Time Latitude Longitude Altitude Speed Heading
2026-05-03 20:15 -37.00521 174.77903 30 ft 0 kts 339°
2026-05-03 20:31 -37.00535 174.77909 30 ft 4 kts 342°
2026-05-03 20:31 -37.00559 174.77919 30 ft 2 kts 339°
2026-05-03 20:32 -37.00576 174.77931 30 ft 4 kts 312°
2026-05-03 20:32 -37.00584 174.77951 29 ft 4 kts 274°
2026-05-03 20:32 -37.00581 174.77983 29 ft 4 kts 255°
2026-05-03 20:32 -37.00577 174.78001 27 ft 0 kts 251°
2026-05-03 20:39 -37.00579 174.77993 30 ft 4 kts 251°
2026-05-03 20:39 -37.00594 174.77940 30 ft 8 kts 251°
2026-05-03 20:39 -37.00614 174.77864 30 ft 10 kts 251°
2026-05-03 20:39 -37.00639 174.77773 30 ft 12 kts 251°
2026-05-03 20:40 -37.00668 174.77670 30 ft 13 kts 250°
2026-05-03 20:40 -37.00700 174.77567 30 ft 9 kts 230°
2026-05-03 20:40 -37.00754 174.77547 30 ft 9 kts 168°
2026-05-03 20:40 -37.00824 174.77579 30 ft 12 kts 161°
2026-05-03 20:41 -37.00908 174.77614 30 ft 13 kts 161°
2026-05-03 20:41 -37.00999 174.77652 30 ft 14 kts 161°
2026-05-03 20:41 -37.01092 174.77691 30 ft 10 kts 161°
2026-05-03 20:41 -37.01141 174.77713 30 ft 8 kts 160°
2026-05-03 20:42 -37.01178 174.77730 30 ft 6 kts 161°
2026-05-03 20:42 -37.01227 174.77741 30 ft 7 kts 188°
2026-05-03 20:42 -37.01264 174.77709 30 ft 9 kts 238°
2026-05-03 20:42 -37.01293 174.77613 31 ft 15 kts 251°
2026-05-03 20:43 -37.01331 174.77474 31 ft 17 kts 251°
2026-05-03 20:43 -37.01370 174.77331 31 ft 17 kts 251°
2026-05-03 20:43 -37.01408 174.77193 31 ft 13 kts 251°
2026-05-03 20:43 -37.01434 174.77126 31 ft 7 kts 221°
2026-05-03 20:44 -37.01478 174.77104 31 ft 8 kts 194°
2026-05-03 20:44 -37.01542 174.77087 31 ft 11 kts 191°
2026-05-03 20:44 -37.01598 174.77084 31 ft 4 kts 146°
2026-05-03 20:44 -37.01613 174.77114 31 ft 4 kts 99°
2026-05-03 20:45 -37.01608 174.77164 31 ft 8 kts 71°
2026-05-03 20:45 -37.01604 174.77178 31 ft 1 kts 71°
2026-05-03 20:45 -37.01556 174.77353 31 ft 53 kts 71°
2026-05-03 20:45 -37.01351 174.78099 31 ft 125 kts 71°
2026-05-03 20:46 -37.01010 174.79340 31 ft 172 kts 71°
2026-05-03 20:46 -37.00592 174.80807 412 ft 176 kts 71°
2026-05-03 20:46 -37.00181 174.82204 1143 ft 171 kts 70°
2026-05-03 20:46 -36.99769 174.83589 1749 ft 168 kts 70°
2026-05-03 20:47 -36.99350 174.85024 1998 ft 182 kts 69°
2026-05-03 20:47 -36.98909 174.86518 2259 ft 188 kts 69°
2026-05-03 20:47 -36.98455 174.88082 2464 ft 197 kts 70°
2026-05-03 20:47 -36.98009 174.89785 2570 ft 218 kts 71°
2026-05-03 20:48 -36.97521 174.91665 2839 ft 237 kts 71°
2026-05-03 20:48 -36.96981 174.93691 3277 ft 249 kts 70°
2026-05-03 20:48 -36.96420 174.95756 3974 ft 252 kts 70°
2026-05-03 20:48 -36.95816 174.97822 4611 ft 255 kts 62°
2026-05-03 20:49 -36.94666 174.99507 5233 ft 260 kts 36°
2026-05-03 20:49 -36.92967 175.00354 5799 ft 270 kts
2026-05-03 20:49 -36.91085 175.00120 6414 ft 278 kts 341°
2026-05-03 20:49 -36.89423 174.98853 7026 ft 285 kts 321°
2026-05-03 20:50 -36.87936 174.97182 7582 ft 289 kts 319°
2026-05-03 20:50 -36.86457 174.95461 8204 ft 292 kts 319°
2026-05-03 20:50 -36.84962 174.93740 8850 ft 293 kts 317°
2026-05-03 20:50 -36.83817 174.91624 9466 ft 299 kts 291°
2026-05-03 20:51 -36.83476 174.89070 10072 ft 302 kts 268°
2026-05-03 20:51 -36.83641 174.86416 10390 ft 316 kts 263°
2026-05-03 20:51 -36.83906 174.83619 10567 ft 332 kts 263°
2026-05-03 20:51 -36.84167 174.80683 10725 ft 348 kts 264°
2026-05-03 20:52 -36.84399 174.77652 11163 ft 352 kts 265°
2026-05-03 20:52 -36.84607 174.74597 11699 ft 354 kts 265°
2026-05-03 20:52 -36.84804 174.71525 12236 ft 357 kts 266°
2026-05-03 20:52 -36.84998 174.68429 12760 ft 359 kts 266°
2026-05-03 20:53 -36.85191 174.65310 13291 ft 362 kts 266°
2026-05-03 20:53 -36.85386 174.62158 13769 ft 365 kts 266°
2026-05-03 20:53 -36.85581 174.58984 14316 ft 368 kts 266°
2026-05-03 20:53 -36.85775 174.55832 14807 ft 370 kts 266°
2026-05-03 20:54 -36.85972 174.52621 15272 ft 372 kts 266°
2026-05-03 20:54 -36.86367 174.46133 16173 ft 377 kts 266°
2026-05-03 20:54 -36.86566 174.42859 16604 ft 380 kts 266°
2026-05-03 20:55 -36.86764 174.39568 17073 ft 382 kts 266°
2026-05-03 20:55 -36.86963 174.36253 17508 ft 384 kts 266°
2026-05-03 20:55 -36.87162 174.32919 17948 ft 386 kts 266°
2026-05-03 20:55 -36.87361 174.29565 18387 ft 388 kts 266°
2026-05-03 20:56 -36.87560 174.26196 18802 ft 392 kts 267°
2026-05-03 20:56 -36.87760 174.22795 19183 ft 394 kts 267°
2026-05-03 20:56 -36.87959 174.19379 19573 ft 395 kts 267°
2026-05-03 20:56 -36.88159 174.15948 19936 ft 397 kts 267°
2026-05-03 20:57 -36.88359 174.12502 20314 ft 399 kts 267°
2026-05-03 20:57 -36.88558 174.09040 20672 ft 400 kts 267°
2026-05-03 20:57 -36.88758 174.05562 21035 ft 402 kts 267°
2026-05-03 20:57 -36.88954 174.02068 21393 ft 404 kts 268°
2026-05-03 20:58 -36.88919 173.98559 21746 ft 405 kts 276°
2026-05-03 20:58 -36.88507 173.95084 22104 ft 405 kts 282°
2026-05-03 20:58 -36.87985 173.91613 22445 ft 407 kts 282°
2026-05-03 20:58 -36.87484 173.88130 22779 ft 410 kts 281°
2026-05-03 20:59 -36.86984 173.84617 23125 ft 412 kts 281°
2026-05-03 20:59 -36.86482 173.81090 23473 ft 413 kts 281°
2026-05-03 20:59 -36.85974 173.77549 23813 ft 415 kts 282°
2026-05-03 20:59 -36.85462 173.73991 24143 ft 417 kts 282°
2026-05-03 21:00 -36.84945 173.70419 24418 ft 419 kts 282°
2026-05-03 21:00 -36.84777 173.69261 24526 ft 419 kts 282°
2026-05-03 21:00 -36.83903 173.63240 25014 ft 422 kts 282°
2026-05-03 21:00 -36.83378 173.59632 25309 ft 423 kts 282°
2026-05-03 21:01 -36.82849 173.56011 25611 ft 425 kts 282°
2026-05-03 21:01 -36.82318 173.52375 25885 ft 427 kts 281°
2026-05-03 21:01 -36.81780 173.48709 26097 ft 431 kts 281°
2026-05-03 21:01 -36.81238 173.45026 26424 ft 432 kts 281°
2026-05-03 21:02 -36.80698 173.41350 26851 ft 431 kts 282°
2026-05-03 21:02 -36.80155 173.37672 27248 ft 431 kts 281°
2026-05-03 21:02 -36.79618 173.34035 27577 ft 433 kts 281°
2026-05-03 21:02 -36.79073 173.30328 27895 ft 435 kts 281°
2026-05-03 21:03 -36.78525 173.26606 28256 ft 437 kts 281°
2026-05-03 21:03 -36.77976 173.22872 28618 ft 438 kts 281°
2026-05-03 21:03 -36.77424 173.19124 28974 ft 440 kts 281°
2026-05-03 21:03 -36.76867 173.15361 29311 ft 442 kts 281°
2026-05-03 21:04 -36.76304 173.11572 29540 ft 447 kts 281°
2026-05-03 21:04 -36.75735 173.07746 29894 ft 449 kts 281°
2026-05-03 21:04 -36.75163 173.03910 30273 ft 450 kts 281°
2026-05-03 21:04 -36.74587 173.00062 30627 ft 453 kts 281°
2026-05-03 21:05 -36.74007 172.96192 30930 ft 454 kts 281°
2026-05-03 21:05 -36.73426 172.92321 31255 ft 456 kts 281°
2026-05-03 21:05 -36.72840 172.88434 31572 ft 457 kts 281°
2026-05-03 21:05 -36.72252 172.84535 31864 ft 459 kts 281°
2026-05-03 21:06 -36.71660 172.80618 32125 ft 462 kts 281°
2026-05-03 21:06 -36.71063 172.76685 32437 ft 463 kts 281°
2026-05-03 21:06 -36.70464 172.72740 32731 ft 465 kts 281°
2026-05-03 21:06 -36.69861 172.68782 33075 ft 465 kts 281°
2026-05-03 21:07 -36.69255 172.64812 33278 ft 469 kts 281°
2026-05-03 21:07 -36.68642 172.60805 33517 ft 472 kts 281°
2026-05-03 21:07 -36.68027 172.56794 33891 ft 471 kts 281°
2026-05-03 21:07 -36.67408 172.52773 34163 ft 474 kts 281°
2026-05-03 21:08 -36.66787 172.48741 34458 ft 475 kts 281°
2026-05-03 21:08 -36.66162 172.44693 34573 ft 480 kts 281°
2026-05-03 21:08 -36.64877 172.36405 34542 ft 486 kts 281°
2026-05-03 21:09 -36.63596 172.28180 34548 ft 484 kts 281°
2026-05-03 21:09 -36.62306 172.19938 34545 ft 488 kts 281°
2026-05-03 21:10 -36.61013 172.11711 34546 ft 485 kts 281°
2026-05-03 21:10 -36.59708 172.03453 34538 ft 489 kts 281°
2026-05-03 21:11 -36.58389 171.95147 34558 ft 491 kts 281°
2026-05-03 21:11 -36.57062 171.86825 34603 ft 490 kts 281°
2026-05-03 21:12 -36.55730 171.78509 34561 ft 490 kts 281°
2026-05-03 21:12 -36.54395 171.70217 34563 ft 488 kts 281°
2026-05-03 21:13 -36.53275 171.63293 34543 ft 487 kts 281°
2026-05-03 21:13 -36.51947 171.55108 34527 ft 486 kts 281°
2026-05-03 21:14 -36.50607 171.46899 34540 ft 484 kts 281°
2026-05-03 21:14 -36.49263 171.38692 34512 ft 485 kts 281°
2026-05-03 21:15 -36.47912 171.30482 34499 ft 485 kts 281°
2026-05-03 21:15 -36.46554 171.22270 34531 ft 485 kts 281°
2026-05-03 21:16 -36.45190 171.14054 34519 ft 486 kts 281°
2026-05-03 21:16 -36.43818 171.05833 34539 ft 486 kts 281°
2026-05-03 21:17 -36.42443 170.97627 34541 ft 485 kts 281°
2026-05-03 21:17 -36.41061 170.89410 34513 ft 486 kts 281°
2026-05-03 21:18 -36.39671 170.81190 34517 ft 487 kts 281°
2026-05-03 21:18 -36.38383 170.72987 34508 ft 488 kts 276°
2026-05-03 21:19 -36.37851 170.64595 34532 ft 488 kts 274°
2026-05-03 21:19 -36.37325 170.56201 34540 ft 488 kts 274°
2026-05-03 21:20 -36.36794 170.47798 34492 ft 490 kts 274°
2026-05-03 21:20 -36.36256 170.39365 34505 ft 491 kts 273°
2026-05-03 21:21 -36.35711 170.30918 34515 ft 492 kts 274°
2026-05-03 21:21 -36.35157 170.22462 34521 ft 493 kts 274°
2026-05-03 21:22 -36.34591 170.13986 34506 ft 494 kts 272°
2026-05-03 21:22 -36.34020 170.05474 34504 ft 496 kts 273°
2026-05-03 21:23 -36.33439 169.96944 34512 ft 497 kts 273°
2026-05-03 21:23 -36.32851 169.88403 34520 ft 498 kts 273°
2026-05-03 21:24 -36.32257 169.79839 34533 ft 499 kts 274°
2026-05-03 21:24 -36.31655 169.71264 34508 ft 500 kts 273°
2026-05-03 21:25 -36.31045 169.62672 34517 ft 501 kts 273°
2026-05-03 21:25 -36.30430 169.54071 34534 ft 501 kts 274°
2026-05-03 21:26 -36.29805 169.45468 34525 ft 501 kts 273°
2026-05-03 21:26 -36.29177 169.36862 34510 ft 501 kts 273°
2026-05-03 21:27 -36.28541 169.28254 34531 ft 501 kts 273°
2026-05-03 21:27 -36.27899 169.19654 34509 ft 502 kts 273°
2026-05-03 21:28 -36.27251 169.11041 34505 ft 502 kts 273°